Regional Weather Roundup
Issued by NWS Newport/Morehead, NC

Current Version | Previous Version | Graphics & Text | Print | Product List | Glossary Off
Versions: 1 2 3 4 5 6 7 8 9 10 11 12 13 14 15 16 17 18 19 20 21 22 23 24 25 26 27 28 29 30 31 32 33 34 35 36 37 38 39 40 41 42 43 44 45 46 47 48 49 50

000
ASUS42 KMHX 211810
RWRMHX
WEATHER ROUNDUP FOR EASTERN NORTH CAROLINA
NATIONAL WEATHER SERVICE NEWPORT/MOREHEAD CITY NC
100 PM EST SUN DEC 21 2014

NOTE: "FAIR" INDICATES FEW OR NO CLOUDS BELOW 12,000 FEET
WITH NO SIGNIFICANT WEATHER AND/OR OBSTRUCTIONS TO VISIBILITY

NCZ015>017-031-032-045>047-102-103-211900-
NORTH COAST

CITY           SKY/WX    TMP DP  RH WIND       PRES   REMARKS
EDENTON        SUNNY     48  32  53 NE6       30.29F
ELIZABETH CITY SUNNY     50  33  52 NE9       30.29F
KITTY HAWK     CLEAR     47  37  66 N9        30.27F
MANTEO         SUNNY     47  36  65 NE12      30.28F

$$

NCZ045>047-081-094-103-104-211900-
CENTRAL COAST

CITY           SKY/WX    TMP DP  RH WIND       PRES   REMARKS
FRISCO         CLOUDY    47  40  76 NE12G18   30.26F
SWANQUARTER      N/A     48 N/A N/A NE8G15    30.21F

$$

NCZ095-097-098-100-101-211900-
SOUTHERN COAST

CITY           SKY/WX    TMP DP  RH WIND       PRES   REMARKS
BEAUFORT       CLOUDY    46  39  76 NE8       30.24F
CEDAR ISLAND     N/A     46 N/A N/A N10       30.30F
JACKSONVILLE   CLOUDY    47  35  63 N9        30.24F
PINEY ISLAND   CLOUDY    48  36  63 NE10      30.26F
WILMINGTON     CLOUDY    48  36  63 N10       30.24F


$$

NCZ011>013-027>030-043-044-078>080-089-090>093-098-211900-
COASTAL PLAIN

CITY           SKY/WX    TMP DP  RH WIND       PRES   REMARKS
AHOSKIE        SUNNY     44  28  53 NE5       30.30F
CLINTON        CLOUDY    49  38  66 NE6       30.26F
ELIZABETHTOWN  MOSUNNY   51  38  60 E6        30.24F
GOLDSBORO      CLOUDY    45  40  82 NE7       30.25F
GREENVILLE     SUNNY     46  32  57 NE8       30.27F
HAVELOCK       CLOUDY    47  35  63 NE10      30.27F
KENANSVILLE    CLOUDY    46  35  65 NE7       30.27F
KINSTON        MOSUNNY   46  34  61 NE8       30.27
NEW BERN       CLOUDY    48  35  60 NE8       30.27F
RICHLANDS      CLOUDY    46  34  61 N9        30.26F
ROCKY MOUNT    SUNNY     48  33  56 N12       30.27F
WASHINGTON     CLOUDY    45  32  60 NE8       30.27F
WHITEVILLE     MOSUNNY   51  37  60 NE10      30.22F

$$

AMZ130-135-150-152-154-156-158-170-250-252-270-ANZ085-086-088-633-658-670-211900-
MARINE OBSERVATIONS

STATION/POSITION TIME  TEMP    WIND        PRES    WAVE   SWELL
                       AIR SEA DIR/SP/G            HT/PER HT/PER
                 (UTC) (F)     (DEG/KT/KT) (MB)    (FT/S) (FT/S)
CHESAPEAKE LIGHT 1700   40      10/  9/ 11 1027.5
64 E VA BEACH    1800   45 54   20/ 14/ 16 1025.0    2/ 4   2/10
DUCK             1800   44 46   20/ 12/ 13 1025.0
2 E DUCK         1800      47                N/A     2/ 4
10 NE DUCK       1800      51                N/A     2/ 4
OREGON INLET     1800   47 47   10/  9/ 14 1025.2
13E OREGON INLT  1800      52                N/A     3/ 4
HATTERAS CG      1800   46 50   20/ 15/ 18 1024.7
DIAMOND BUOY     1800   52                 1024.2    3/ 4
17 S OCRACOKE    NOT AVBL
CAPE LOOKOUT     1700   44      20/ 15/ 18 1024.5
BEAUFORT LAB     1800   45 51   30/  9/ 15 1023.2
30 SE NEW RIVER  1800   50 60   40/ 21/ 25 1023.0    5/ 5
5 SE WRIGHTSVLE  NOT AVBL
225 S CAPE HAT   1728   67 71  100/ 19/ 25 1018.4    6/ 6   2/10
41 SE CHARLESTON 1800   60 69   30/ 19/ 23 1020.2    6/ 6   2/ 9

$$



USA.gov is the U.S. government's official web portal to all federal, state and local government web resources and services.